FW0479 Weather Reports


Display with metric or nautical units.
time (UTC)temp
F
wind
direction
speed
MPH
gust
MPH
rain 1hr
in
rain 24hr
in
rain mn
in
humidity
%
barometer
mb
20181217012121 51 270 4.0 7.0 0.00 0.01 0.01 76 1017.7
20181217011121 51 264 4.0 6.0 0.00 0.01 0.01 76 1017.5
20181217010121 51 268 4.0 6.0 0.00 0.01 0.01 76 1017.4
20181217005121 51 278 5.0 7.0 0.00 0.01 0.01 76 1017.3
20181217004122 51 270 5.0 7.0 0.00 0.01 0.01 77 1017.3
20181217003121 51 272 3.0 6.0 0.00 0.01 0.01 77 1017.2
20181217002122 51 268 3.0 4.0 0.00 0.01 0.01 77 1017.2
20181217001121 51 273 3.0 6.0 0.00 0.01 0.01 77 1017.0
20181217000121 51 263 2.0 5.0 0.00 0.01 0.01 78 1017.0
20181216235121 51 264 2.0 3.0 0.00 0.01 0.01 78 1016.9
20181216234121 51 248 0.0 0.0 0.00 0.01 0.01 77 1016.9
20181216233121 53 216 0.0 2.0 0.00 0.01 0.01 74 1016.7
20181216232122 54 249 2.0 5.0 0.00 0.01 0.01 73 1016.8
20181216231121 54 268 4.0 7.0 0.00 0.01 0.01 71 1016.6
20181216230121 55 295 4.0 8.0 0.00 0.01 0.01 71 1016.5
20181216225122 55 278 3.0 5.0 0.00 0.01 0.01 71 1016.3
20181216224124 55 284 4.0 6.0 0.00 0.01 0.01 70 1016.3
20181216223122 56 282 3.0 7.0 0.00 0.01 0.01 71 1016.0
20181216222121 56 291 3.0 5.0 0.00 0.01 0.01 71 1015.9
20181216221121 57 264 3.0 6.0 0.00 0.01 0.01 69 1015.9
20181216220122 58 273 4.0 7.0 0.00 0.01 0.01 68 1015.6
20181216215122 58 266 4.0 7.0 0.00 0.01 0.01 67 1015.6
20181216214121 59 256 5.0 9.0 0.00 0.01 0.01 66 1015.6
20181216213125 59 272 7.0 11.0 0.00 0.01 0.01 66 1015.5
20181216212122 59 280 6.0 9.0 0.00 0.01 0.01 65 1015.2
20181216211122 60 255 6.0 10.0 0.00 0.01 0.01 64 1015.3
20181216210122 60 275 7.0 11.0 0.00 0.01 0.01 63 1014.9
20181216205122 60 267 6.0 10.0 0.00 0.01 0.01 63 1014.8
20181216204122 60 272 6.0 12.0 0.00 0.01 0.01 63 1014.8
20181216203122 60 266 6.0 12.0 0.00 0.01 0.01 63 1014.6
20181216202125 60 258 7.0 11.0 0.00 0.01 0.01 63 1014.6
20181216201122 60 278 6.0 11.0 0.00 0.01 0.01 63 1014.4
20181216200122 60 266 8.0 12.0 0.00 0.01 0.01 63 1014.5
20181216195122 60 256 7.0 11.0 0.00 0.01 0.01 63 1014.3
20181216194122 60 258 7.0 12.0 0.00 0.01 0.01 62 1014.3
20181216193122 60 281 6.0 12.0 0.00 0.01 0.01 63 1014.2
20181216192121 60 270 7.0 10.0 0.00 0.01 0.01 63 1014.2
20181216191122 60 253 6.0 11.0 0.00 0.01 0.01 63 1014.2
20181216190122 60 256 6.0 9.0 0.00 0.01 0.01 64 1014.3
20181216185122 59 264 6.0 12.0 0.00 0.01 0.01 67 1014.3
20181216184124 59 270 6.0 12.0 0.00 0.01 0.01 66 1014.3
20181216183122 59 260 5.0 10.0 0.00 0.01 0.01 66 1014.5
20181216182122 59 252 5.0 12.0 0.00 0.01 0.01 67 1014.7
20181216181122 59 257 6.0 10.0 0.00 0.01 0.01 67 1014.9
20181216180122 59 270 8.0 13.0 0.00 0.01 0.01 68 1014.9
20181216175123 59 261 7.0 13.0 0.00 0.01 0.01 65 1014.9
20181216174122 58 264 5.0 12.0 0.00 0.01 0.01 68 1015.0
20181216173122 57 259 7.0 11.0 0.00 0.01 0.01 69 1015.2
20181216172122 57 243 5.0 12.0 0.00 0.02 0.01 69 1015.4
20181216171123 57 247 4.0 9.0 0.00 0.02 0.01 72 1015.6
20181216170122 56 255 6.0 11.0 0.00 0.03 0.01 72 1015.7
20181216165122 56 272 7.0 11.0 0.00 0.04 0.01 71 1015.7
20181216164123 55 249 5.0 10.0 0.00 0.04 0.01 74 1015.9
20181216163122 55 238 5.0 10.0 0.00 0.05 0.01 75 1016.1
20181216162126 55 256 5.0 9.0 0.00 0.05 0.01 76 1016.3
20181216161124 54 253 5.0 7.0 0.00 0.05 0.01 77 1016.4
20181216160122 53 263 5.0 9.0 0.00 0.05 0.01 79 1016.3
20181216155124 52 237 5.0 8.0 0.00 0.05 0.01 79 1016.3
20181216154122 52 266 6.0 10.0 0.00 0.06 0.01 81 1016.5
20181216153122 51 248 5.0 8.0 0.00 0.12 0.01 82 1016.7
20181216152122 50 226 4.0 6.0 0.00 0.14 0.01 85 1016.8
20181216151122 50 236 4.0 8.0 0.00 0.15 0.01 84 1016.8
20181216150122 50 236 4.0 8.0 0.00 0.15 0.01 87 1016.8
20181216145122 49 259 5.0 9.0 0.00 0.15 0.01 86 1016.4
20181216144124 48 253 4.0 6.0 0.00 0.15 0.01 89 1016.4
20181216143122 47 246 4.0 7.0 0.00 0.15 0.01 90 1016.4
20181216142123 46 226 3.0 6.0 0.00 0.15 0.01 94 1016.2
20181216141122 46 236 3.0 5.0 0.00 0.15 0.01 94 1016.0
20181216140122 46 253 3.0 6.0 0.00 0.15 0.01 94 1016.0
20181216135122 45 247 3.0 6.0 0.00 0.15 0.01 96 1015.8
20181216134122 44 257 4.0 6.0 0.00 0.15 0.01 96 1015.8
20181216133123 44 269 4.0 8.0 0.01 0.15 0.01 97 1015.9
20181216132122 43 242 3.0 6.0 0.01 0.15 0.01 99 1015.7
20181216131123 42 249 3.0 7.0 0.01 0.15 0.01 99 1015.8
20181216130123 41 239 3.0 7.0 0.01 0.15 0.01 99 1015.5
20181216125122 41 257 4.0 5.0 0.01 0.15 0.01 99 1015.6
20181216124123 41 252 4.0 8.0 0.01 0.17 0.01 99 1015.6
20181216123122 41 243 4.0 7.0 0.00 0.16 0.00 99 1015.4
20181216122123 41 252 5.0 9.0 0.00 0.17 0.00 99 1015.7
20181216121122 41 255 4.0 8.0 0.00 0.17 0.00 99 1015.6
20181216120125 40 261 3.0 5.0 0.00 0.18 0.00 99 1015.1
20181216115117 40 257 2.0 4.0 0.00 0.18 0.00 99 1014.9
20181216114121 41 230 1.0 4.0 0.00 0.18 0.00 99 1014.9
20181216113117 41 235 2.0 6.0 0.00 0.18 0.00 99 1014.9
20181216112117 41 266 1.0 4.0 0.00 0.00 0.00 99 1014.6
20181216111117 41 203 0.0 0.0 0.00 0.00 0.00 99 1014.5
20181216110119 41 246 0.0 2.0 0.00 0.00 0.00 99 1014.8
20181216105117 41 257 2.0 5.0 0.00 0.00 0.00 99 1014.6
20181216104117 42 258 2.0 6.0 0.00 0.00 0.00 99 1014.6
20181216103120 42 260 3.0 5.0 0.00 0.00 0.00 99 1014.7
20181216102117 42 251 3.0 6.0 0.00 0.00 0.00 99 1014.6
20181216101117 42 248 3.0 7.0 0.00 0.00 0.00 99 1014.6
20181216100117 42 232 3.0 6.0 0.00 0.00 0.00 99 1014.6
20181216095117 43 248 2.0 4.0 0.00 0.00 0.00 99 1014.5
20181216094118 43 244 3.0 6.0 0.00 0.00 0.00 99 1014.5
20181216093118 43 251 3.0 5.0 0.00 0.00 0.00 99 1014.5
20181216092119 43 244 1.0 3.0 0.00 0.00 0.00 99 1014.2
20181216091118 44 272 2.0 4.0 0.00 0.00 0.00 99 1014.5
20181216090121 44 249 3.0 6.0 0.00 0.00 0.00 99 1014.5
20181216085118 44 261 5.0 7.0 0.00 0.00 0.00 99 1014.5
20181216084117 44 261 4.0 7.0 0.00 0.00 0.00 99 1014.4
20181216083118 44 258 5.0 9.0 0.00 0.00 0.00 99 1014.5
20181216082118 44 261 4.0 7.0 0.00 0.00 0.00 99 1014.3
20181216081117 45 262 5.0 7.0 0.00 0.00 0.00 99 1014.4
20181216080118 45 265 4.0 9.0 0.00 0.00 0.00 99 1014.3
20181216075118 45 260 5.0 10.0 0.00 0.00 0.00 99 1014.4
20181216074118 45 251 6.0 10.0 0.00 0.00 0.00 99 1014.4
20181216073121 45 246 5.0 9.0 0.00 0.00 0.00 99 1014.2
20181216072118 44 228 4.0 10.0 0.00 0.00 0.00 99 1014.1
20181216071118 44 245 3.0 6.0 0.00 0.00 0.00 99 1014.0
20181216070117 44 252 3.0 8.0 0.00 0.00 0.00 99 1013.9
20181216065118 44 221 2.0 7.0 0.00 0.00 0.00 99 1013.8
20181216064118 44 224 1.0 4.0 0.00 0.00 0.00 99 1013.8
20181216063118 44 253 2.0 6.0 0.00 0.00 0.00 99 1013.9
20181216062120 43 258 1.0 5.0 0.00 0.00 0.00 99 1014.0
20181216061118 43 258 0.0 2.0 0.00 0.00 0.00 99 1014.0
20181216060117 44 248 2.0 5.0 0.00 0.00 0.00 99 1014.0
20181216055118 43 270 0.0 3.0 0.00 0.00 0.00 99 1013.9
20181216054117 44 197 0.0 2.0 0.00 0.00 0.00 99 1013.9
20181216053118 44 180 0.0 0.0 0.00 0.00 0.00 99 1014.1
20181216052119 44 189 0.0 2.0 0.00 0.00 0.00 99 1014.5
20181216051121 44 247 0.0 2.0 0.00 0.00 0.00 99 1014.6
20181216050118 44 253 0.0 2.0 0.00 0.00 0.00 99 1014.9
20181216045118 44 270 1.0 3.0 0.00 0.00 0.54 99 1015.1
20181216044118 44 263 0.0 3.0 0.00 0.00 0.54 99 1015.1
20181216043118 44 270 0.0 2.0 0.00 0.00 0.54 99 1015.0
20181216042118 44 253 0.0 3.0 0.00 0.00 0.54 99 1015.1
20181216041117 44 180 0.0 0.0 0.00 0.00 0.54 99 1015.2
20181216040122 44 180 0.0 0.0 0.00 0.00 0.54 99 1015.2
20181216035120 45 270 0.0 0.0 0.00 0.00 0.54 99 1015.1
20181216034117 45 247 0.0 1.0 0.00 0.00 0.54 99 1015.1
20181216033118 45 203 0.0 0.0 0.00 0.00 0.54 99 1015.1
20181216032118 45 158 0.0 0.0 0.00 0.00 0.54 99 1015.2
20181216031118 46 113 0.0 0.0 0.00 0.00 0.54 99 1015.2
20181216030118 46 135 0.0 0.0 0.00 0.00 0.54 99 1015.1
20181216025118 47 180 0.0 0.0 0.00 0.00 0.54 99 1015.1
20181216024121 47 135 0.0 0.0 0.00 0.00 0.54 99 1015.3
20181216023117 47 158 0.0 0.0 0.00 0.00 0.54 99 1015.2
20181216022119 47 180 0.0 0.0 0.00 0.00 0.54 99 1015.0
20181216021118 48 203 0.0 0.0 0.00 0.00 0.54 99 1015.2
20181216020118 48 158 0.0 0.0 0.00 0.00 0.54 99 1015.3
20181216015118 48 135 0.0 0.0 0.00 0.00 0.54 99 1015.2
20181216014118 48 180 0.0 0.0 0.00 0.00 0.54 99 1015.2
20181216013118 48 180 0.0 0.0 0.00 0.00 0.54 99 1015.1